When you browse on this site, cookies collect data to enhance your experience and personalize the content and advertising you see.
Visit our Privacy Policy to learn more. By continuing to use the site, you agree to this use of cookies and data.
  • In Hungary
  • List of Countries
  • For 7 days
  • Water Temperature
  • Weather Map
  • News
  • Weather Widgets
  • user-avatar
    Login

    Hourly Weather Nivische

    Today, 23 January, Thursday

    Time Temperature Precipitation Wind Pressure Humidity
    00:00 -6°C° 0 mm 6 mps 734 mmHg 79%
    01:00 -8°C° 0 mm 6 mps 735 mmHg 75%
    02:00 -8°C° 0 mm 6 mps 736 mmHg 71%
    03:00 -7°C° 0.1 mm 5 mps 736 mmHg 72%
    04:00 -7°C° 0.1 mm 5 mps 736 mmHg 73%
    05:00 -8°C° 0.1 mm 5 mps 737 mmHg 74%
    06:00 -8°C° 0 mm 5 mps 737 mmHg 72%
    07:00 -8°C° 0 mm 5 mps 738 mmHg 70%
    08:00 -8°C° 0 mm 5 mps 739 mmHg 68%
    09:00 -8°C° 0 mm 5 mps 739 mmHg 66%
    10:00 -8°C° 0 mm 6 mps 739 mmHg 64%
    11:00 -8°C° 0 mm 6 mps 739 mmHg 61%
    12:00 -8°C° 0.1 mm 6 mps 740 mmHg 65%
    13:00 -8°C° 0.1 mm 6 mps 740 mmHg 69%
    14:00 -8°C° 0.1 mm 6 mps 740 mmHg 73%
    15:00 -7°C° 0.1 mm 5 mps 741 mmHg 74%
    16:00 -7°C° 0.1 mm 5 mps 741 mmHg 75%
    17:00 -7°C° 0.1 mm 5 mps 741 mmHg 75%
    18:00 -7°C° 0 mm 4 mps 741 mmHg 76%
    19:00 -6°C° 0 mm 3 mps 741 mmHg 77%
    20:00 -6°C° 0 mm 2 mps 741 mmHg 78%
    21:00 -5°C° 0 mm 2 mps 741 mmHg 79%
    22:00 -5°C° 0 mm 2 mps 741 mmHg 80%
    23:00 -5°C° 0 mm 2 mps 740 mmHg 81%

    Tomorrow, 24 January, Friday

    Time Temperature Precipitation Wind Pressure Humidity
    00:00 -6°C° 0 mm 3 mps 740 mmHg 84%
    01:00 -5°C° 0 mm 3 mps 739 mmHg 87%
    02:00 -5°C° 0 mm 4 mps 739 mmHg 90%
    03:00 -4°C° 0.1 mm 4 mps 738 mmHg 88%
    04:00 -4°C° 0.1 mm 4 mps 737 mmHg 85%
    05:00 -3°C° 0.1 mm 4 mps 736 mmHg 83%
    06:00 -3°C° 0.5 mm 4 mps 735 mmHg 87%
    07:00 -3°C° 0.5 mm 4 mps 734 mmHg 91%
    08:00 -4°C° 0.5 mm 5 mps 734 mmHg 95%
    09:00 -2°C° 0.2 mm 4 mps 733 mmHg 95%
    10:00 -1°C° 0.2 mm 4 mps 732 mmHg 96%
    11:00 -1°C° 0.2 mm 4 mps 732 mmHg 96%
    12:00 0°C° 0.1 mm 4 mps 731 mmHg 96%
    13:00 0°C° 0.1 mm 4 mps 731 mmHg 95%
    14:00 0°C° 0.1 mm 4 mps 730 mmHg 95%
    15:00 0°C° 0.3 mm 4 mps 730 mmHg 95%
    16:00 0°C° 0.3 mm 4 mps 730 mmHg 95%
    17:00 0°C° 0.3 mm 4 mps 730 mmHg 95%
    18:00 -1°C° 0.1 mm 4 mps 730 mmHg 91%
    19:00 -1°C° 0.1 mm 4 mps 731 mmHg 88%
    20:00 -2°C° 0.1 mm 4 mps 731 mmHg 85%
    21:00 -2°C° 0 mm 4 mps 731 mmHg 87%
    22:00 -3°C° 0 mm 4 mps 731 mmHg 88%
    23:00 -3°C° 0 mm 4 mps 731 mmHg 90%

    Day after tomorrow, 25 January, Saturday

    Time Temperature Precipitation Wind Pressure Humidity
    00:00 -3°C° 0 mm 4 mps 731 mmHg 88%
    01:00 -3°C° 0 mm 4 mps 731 mmHg 87%
    02:00 -3°C° 0 mm 4 mps 731 mmHg 85%
    03:00 -3°C° 0 mm 4 mps 730 mmHg 85%
    04:00 -3°C° 0 mm 4 mps 730 mmHg 85%
    05:00 -3°C° 0 mm 4 mps 730 mmHg 85%
    06:00 -4°C° 0 mm 5 mps 730 mmHg 85%
    07:00 -2°C° 0 mm 5 mps 729 mmHg 84%
    08:00 -3°C° 0 mm 6 mps 729 mmHg 84%
    09:00 -3°C° 0.2 mm 6 mps 729 mmHg 83%
    10:00 -2°C° 0.2 mm 5 mps 729 mmHg 83%
    11:00 -2°C° 0.2 mm 5 mps 729 mmHg 82%
    12:00 -2°C° 0.7 mm 5 mps 729 mmHg 78%
    13:00 -2°C° 0.7 mm 5 mps 729 mmHg 74%
    14:00 -2°C° 0.7 mm 5 mps 729 mmHg 69%
    15:00 -4°C° 0.1 mm 5 mps 729 mmHg 72%
    16:00 -4°C° 0.1 mm 5 mps 729 mmHg 75%
    17:00 -5°C° 0.1 mm 5 mps 730 mmHg 78%
    18:00 -5°C° 0 mm 5 mps 730 mmHg 79%
    19:00 -5°C° 0 mm 5 mps 731 mmHg 80%
    20:00 -5°C° 0 mm 6 mps 732 mmHg 81%
    21:00 -5°C° 0 mm 6 mps 732 mmHg 80%
    22:00 -5°C° 0 mm 6 mps 733 mmHg 79%
    23:00 -5°C° 0 mm 6 mps 734 mmHg 79%

    26 January, Sunday

    Time Temperature Precipitation Wind Pressure Humidity
    00:00 -6°C° 0 mm 6 mps 735 mmHg 79%
    01:00 -6°C° 0 mm 5 mps 735 mmHg 80%
    02:00 -6°C° 0 mm 5 mps 736 mmHg 80%
    03:00 -6°C° 0 mm 5 mps 737 mmHg 81%
    04:00 -6°C° 0 mm 5 mps 738 mmHg 81%
    05:00 -7°C° 0 mm 4 mps 738 mmHg 81%
    06:00 -7°C° 0 mm 4 mps 739 mmHg 82%
    07:00 -7°C° 0 mm 4 mps 740 mmHg 84%
    08:00 -7°C° 0 mm 4 mps 741 mmHg 85%
    09:00 -7°C° 0 mm 4 mps 742 mmHg 83%
    10:00 -7°C° 0 mm 4 mps 743 mmHg 81%
    11:00 -5°C° 0 mm 3 mps 743 mmHg 79%
    12:00 -5°C° 0 mm 3 mps 744 mmHg 77%
    13:00 -5°C° 0 mm 3 mps 744 mmHg 76%
    14:00 -4°C° 0 mm 3 mps 744 mmHg 75%
    15:00 -5°C° 0 mm 3 mps 744 mmHg 79%
    16:00 -5°C° 0 mm 2 mps 744 mmHg 83%
    17:00 -5°C° 0 mm 2 mps 744 mmHg 87%
    18:00 -5°C° 0 mm 2 mps 745 mmHg 86%
    19:00 -5°C° 0 mm 2 mps 745 mmHg 86%
    20:00 -5°C° 0 mm 2 mps 745 mmHg 85%
    21:00 -5°C° 0 mm 2 mps 745 mmHg 85%
    22:00 -5°C° 0 mm 2 mps 745 mmHg 85%
    23:00 -3°C° 0 mm 1 mps 744 mmHg 86%

    27 January, Monday

    Time Temperature Precipitation Wind Pressure Humidity
    00:00 -4°C° 0.1 mm 2 mps 744 mmHg 89%
    01:00 -4°C° 0.1 mm 2 mps 744 mmHg 92%
    02:00 -4°C° 0.1 mm 2 mps 744 mmHg 96%
    03:00 -3°C° 0.5 mm 2 mps 743 mmHg 96%
    04:00 -3°C° 0.5 mm 2 mps 743 mmHg 97%
    05:00 -2°C° 0.5 mm 2 mps 742 mmHg 97%
    06:00 -1°C° 0.5 mm 2 mps 742 mmHg 97%
    07:00 0°C° 0.5 mm 3 mps 742 mmHg 97%
    08:00 0°C° 0.5 mm 3 mps 742 mmHg 97%
    09:00 0°C° 0.1 mm 3 mps 742 mmHg 97%
    10:00 0°C° 0.1 mm 3 mps 741 mmHg 97%
    11:00 0°C° 0.1 mm 3 mps 741 mmHg 97%
    12:00 0°C° 0.3 mm 3 mps 741 mmHg 97%
    13:00 0°C° 0.3 mm 3 mps 741 mmHg 97%
    14:00 0°C° 0.3 mm 3 mps 740 mmHg 97%
    15:00 0°C° 0.3 mm 3 mps 740 mmHg 97%
    16:00 0°C° 0.3 mm 3 mps 740 mmHg 97%
    17:00 0°C° 0.3 mm 3 mps 740 mmHg 97%
    18:00 -1°C° 0.3 mm 3 mps 739 mmHg 97%
    19:00 -1°C° 0.3 mm 2 mps 739 mmHg 98%
    20:00 -1°C° 0.3 mm 2 mps 739 mmHg 98%
    21:00 -1°C° 0.3 mm 2 mps 738 mmHg 98%
    22:00 -1°C° 0.3 mm 2 mps 738 mmHg 98%
    23:00 -1°C° 0.3 mm 2 mps 738 mmHg 98%

    28 January, Tuesday

    Time Temperature Precipitation Wind Pressure Humidity
    00:00 -1°C° 0.2 mm 2 mps 737 mmHg 98%
    01:00 -1°C° 0.2 mm 2 mps 737 mmHg 98%
    02:00 -1°C° 0.2 mm 2 mps 737 mmHg 98%
    03:00 -1°C° 0.1 mm 2 mps 736 mmHg 98%
    04:00 -1°C° 0.1 mm 2 mps 736 mmHg 98%
    05:00 +1°C° 0.1 mm 1 mps 736 mmHg 98%
    06:00 +1°C° 0.2 mm 1 mps 736 mmHg 98%
    07:00 +1°C° 0.2 mm 1 mps 736 mmHg 98%
    08:00 +1°C° 0.2 mm 1 mps 736 mmHg 98%
    09:00 +1°C° 0.1 mm 1 mps 737 mmHg 98%
    10:00 +1°C° 0.1 mm 1 mps 737 mmHg 97%
    11:00 +1°C° 0.1 mm 1 mps 737 mmHg 97%
    12:00 +1°C° 0 mm 1 mps 738 mmHg 97%
    13:00 +1°C° 0 mm 1 mps 738 mmHg 96%
    14:00 +1°C° 0 mm 1 mps 738 mmHg 96%
    15:00 +1°C° 0 mm 1 mps 738 mmHg 96%
    16:00 +1°C° 0 mm 1 mps 739 mmHg 96%
    17:00 -1°C° 0 mm 2 mps 739 mmHg 96%
    18:00 -1°C° 0 mm 2 mps 739 mmHg 95%
    19:00 -1°C° 0 mm 2 mps 739 mmHg 93%
    20:00 -2°C° 0 mm 2 mps 739 mmHg 91%
    21:00 -2°C° 0 mm 2 mps 739 mmHg 91%
    22:00 -4°C° 0 mm 3 mps 739 mmHg 91%
    23:00 -4°C° 0 mm 3 mps 739 mmHg 91%
    Show more